Port Heiden, AK

3:36 AM AKDT on March 24, 2017 (GMT -0800)
Port Heiden

Weather History for PAPH - December, 2012

Change the Weather History Date:

Thursday, December 6, 2012

  Actual Average Record
Temperature  
Mean Temperature 16 °F -  
Max Temperature 21 °F 31 °F 51 °F (2013)
Min Temperature 12 °F 22 °F 0 °F (2001)
Degree Days  
Heating Degree Days 48    
Moisture  
Dew Point 5 °F    
Average Humidity 60    
Maximum Humidity 68    
Minimum Humidity 50    
Precipitation  
Precipitation 0.01 in - - ()
Sea Level Pressure  
Sea Level Pressure 29.89 in    
Wind  
Wind Speed 9 mph (NW)    
Max Wind Speed 18 mph    
Max Gust Speed 20 mph    
Visibility 9 miles    
Events      
Averages and records for this station are not official NWS values.
T = Trace of Precipitation, MM = Missing Value Source: NWS Daily Summary

Daily Weather History Graph

Daily Weather History Graph

Search for Another Location

Airport or City:

Trip Planner

Search our weather history database for the weather conditions in past years. The results will help you decide how hot, cold, wet, or windy it might be!

Date:

Astronomy

Dec. 06, 2012 Rise Set
Actual Time 9:56 AM AKST 4:55 PM AKST
Civil Twilight 9:08 AM AKST 5:43 PM AKST
Nautical Twilight 8:18 AM AKST 6:33 PM AKST
Astronomical Twilight 7:31 AM AKST 7:19 PM AKST
Moon 1:03 AM AKST (12/6) 1:40 PM AKST (12/6)
Length of Visible Light 8h 34m
Length of Day
6h 58m
Waning Gibbous, 48% of the Moon is Illuminated
Dec 6
Waning Gibbous
Dec 12
New
Dec 19
First Quarter
Dec 28
Full
Jan 4
Last Quarter

Hourly Weather History & Observations

Time (AKST) Temp. Windchill Dew Point Humidity Pressure Visibility Wind Dir Wind Speed Gust Speed Precip Events Conditions
12:16 AM 12.2 °F 1.7 °F 3.2 °F 67% 29.79 in 10.0 mi ENE 6.9 mph - N/A   Overcast
12:36 AM 12.2 °F 0.7 °F 1.4 °F 62% 29.80 in 10.0 mi NE 8.1 mph - N/A   Overcast
12:56 AM 14.0 °F 2.9 °F 1.4 °F 57% 29.80 in 10.0 mi NE 8.1 mph - N/A   Overcast
1:16 AM 14.0 °F 2.9 °F 1.4 °F 57% 29.80 in 10.0 mi NE 8.1 mph - N/A   Overcast
1:36 AM 14.0 °F 2.0 °F 1.4 °F 57% 29.80 in 10.0 mi NE 9.2 mph - N/A   Overcast
1:56 AM 14.0 °F 3.9 °F 1.4 °F 57% 29.81 in 10.0 mi NE 6.9 mph - N/A   Overcast
2:36 AM 12.2 °F -0.2 °F 1.4 °F 62% 29.81 in 10.0 mi ENE 9.2 mph - N/A   Overcast
2:56 AM 12.2 °F 1.7 °F 3.2 °F 67% 29.82 in 10.0 mi NE 6.9 mph - N/A   Overcast
3:16 AM 14.0 °F 3.9 °F 3.2 °F 62% 29.82 in 10.0 mi ENE 6.9 mph - N/A   Overcast
3:36 AM 14.0 °F 5.1 °F 3.2 °F 62% 29.82 in 10.0 mi ENE 5.8 mph - N/A   Overcast
3:56 AM - - - N/A% 29.82 in 10.0 mi NE 5.8 mph - N/A   Overcast
4:16 AM 15.8 °F 5.1 °F 6.8 °F 68% 29.82 in 10.0 mi ENE 8.1 mph - N/A   Overcast
4:36 AM 15.8 °F 7.2 °F 3.2 °F 58% 29.82 in 10.0 mi East 5.8 mph - N/A   Overcast
4:56 AM 15.8 °F 8.6 °F 6.8 °F 68% 29.83 in 10.0 mi East 4.6 mph - N/A   Overcast
5:16 AM - - - N/A% 29.82 in 10.0 mi East 3.5 mph - N/A   Overcast
5:36 AM - - - N/A% 29.83 in 8.0 mi ESE 3.5 mph - N/A   Overcast
5:56 AM - - - N/A% 29.83 in 5.0 mi Calm Calm - N/A   Overcast
6:16 AM - - - N/A% 29.83 in 9.0 mi SE 3.5 mph - N/A   Overcast
6:36 AM - - - N/A% 29.82 in 9.0 mi ESE 3.5 mph - N/A   Overcast
6:56 AM - - - N/A% 29.83 in 10.0 mi South 6.9 mph - N/A   Overcast
7:16 AM - - - N/A% 29.83 in 10.0 mi SSE 8.1 mph - N/A   Overcast
7:36 AM - - - N/A% 29.83 in 10.0 mi WSW 13.8 mph - N/A   Overcast
7:56 AM - - - N/A% 29.84 in 10.0 mi West 16.1 mph - 0.01 in   Overcast
8:16 AM - - - N/A% 29.84 in 10.0 mi West 15.0 mph - N/A   Overcast
8:36 AM - - - N/A% 29.85 in 10.0 mi West 16.1 mph - N/A   Overcast
8:56 AM - - - N/A% 29.86 in 10.0 mi West 12.7 mph - N/A   Overcast
9:16 AM - - - N/A% 29.86 in 7.0 mi West 17.3 mph - N/A   Overcast
9:36 AM - - - N/A% 29.87 in 4.0 mi West 17.3 mph - N/A   Overcast
9:56 AM - - - N/A% 29.87 in 8.0 mi West 18.4 mph - N/A   Overcast
10:16 AM - - - N/A% 29.88 in 7.0 mi West 12.7 mph - N/A   Overcast
10:36 AM - - - N/A% 29.88 in 10.0 mi West 13.8 mph - N/A   Overcast
10:56 AM - - - N/A% 29.89 in 10.0 mi WNW 13.8 mph 19.6 mph N/A   Overcast
11:16 AM - - - N/A% 29.89 in 8.0 mi West 13.8 mph - N/A   Overcast
11:36 AM - - - N/A% 29.90 in 10.0 mi WSW 11.5 mph 18.4 mph N/A   Overcast
11:56 AM - - - N/A% 29.90 in 10.0 mi West 12.7 mph - N/A   Overcast
12:16 PM - - - N/A% 29.91 in 10.0 mi West 11.5 mph - N/A   Overcast
12:36 PM - - - N/A% 29.91 in 10.0 mi WNW 10.4 mph - N/A   Overcast
12:56 PM - - - N/A% 29.91 in 10.0 mi WNW 10.4 mph - N/A   Overcast
1:16 PM - - - N/A% 29.91 in 10.0 mi West 11.5 mph - N/A   Overcast
1:36 PM 21.2 °F 7.8 °F 8.6 °F 58% 29.92 in 10.0 mi West 15.0 mph - N/A   Overcast
1:56 PM - - - N/A% 29.91 in 2.0 mi West 9.2 mph - N/A   Overcast
2:16 PM - - - N/A% 29.91 in 10.0 mi West 11.5 mph - N/A   Overcast
2:36 PM - - - N/A% 29.92 in 8.0 mi West 13.8 mph 17.3 mph N/A   Overcast
2:56 PM 21.2 °F 8.9 °F 10.4 °F 63% 29.92 in 5.0 mi West 12.7 mph - N/A   Overcast
3:16 PM - - - N/A% 29.91 in 10.0 mi WSW 11.5 mph - N/A   Overcast
3:36 PM - - - N/A% 29.92 in 10.0 mi West 11.5 mph - N/A   Overcast
3:56 PM - - - N/A% 29.92 in 10.0 mi West 10.4 mph - N/A   Overcast
4:16 PM - - - N/A% 29.92 in 10.0 mi West 12.7 mph - N/A   Overcast
4:36 PM - - - N/A% 29.92 in 10.0 mi West 10.4 mph 16.1 mph N/A   Overcast
4:56 PM 21.2 °F 9.5 °F 8.6 °F 58% 29.92 in 10.0 mi WSW 11.5 mph - N/A   Overcast
5:36 PM - - - N/A% 29.93 in 10.0 mi West 8.1 mph - N/A   Overcast
5:56 PM - - - N/A% 29.93 in 10.0 mi West 13.8 mph - N/A   Overcast
6:16 PM - - - N/A% 29.93 in 10.0 mi West 12.7 mph - N/A   Overcast
6:36 PM - - - N/A% 29.93 in 10.0 mi WSW 17.3 mph - N/A   Overcast
6:56 PM - - - N/A% 29.94 in 10.0 mi West 11.5 mph - N/A   Overcast
7:16 PM 21.2 °F 13.6 °F 5.0 °F 50% 29.94 in 10.0 mi WSW 5.8 mph - N/A   Overcast
7:36 PM - - - N/A% 29.94 in 10.0 mi West 6.9 mph - N/A   Overcast
7:56 PM - - - N/A% 29.94 in 10.0 mi WNW 9.2 mph - N/A   Overcast
8:16 PM - - - N/A% 29.95 in 10.0 mi NNE 6.9 mph - N/A   Overcast
8:36 PM 17.6 °F 8.2 °F 3.2 °F 53% 29.95 in 10.0 mi ENE 6.9 mph - N/A   Overcast
8:56 PM 15.8 °F 6.1 °F 5.0 °F 62% 29.95 in 3.0 mi ENE 6.9 mph - N/A   Overcast
9:16 PM - - - N/A% 29.95 in 10.0 mi NE 9.2 mph - N/A   Overcast
9:36 PM - - - N/A% 29.95 in 10.0 mi NE 8.1 mph - N/A   Overcast
9:56 PM - - - N/A% 29.95 in 10.0 mi NE 6.9 mph - N/A   Overcast
10:16 PM - - - N/A% 29.95 in 8.0 mi NE 8.1 mph - N/A   Overcast
10:36 PM - - - N/A% 29.96 in 4.0 mi ENE 8.1 mph - N/A   Overcast
10:56 PM - - - N/A% 29.96 in 10.0 mi NE 5.8 mph - N/A   Overcast
11:16 PM 15.8 °F 5.1 °F 5.0 °F 62% 29.96 in 10.0 mi NE 8.1 mph - N/A   Overcast
11:36 PM 15.8 °F 7.2 °F 3.2 °F 58% 29.97 in 10.0 mi ENE 5.8 mph - N/A   Overcast
11:56 PM 15.8 °F 7.2 °F 6.8 °F 68% 29.97 in 10.0 mi ENE 5.8 mph - N/A   Overcast